Terug naar catalogus

SL-16 DEB

ActiefLEO
NORAD 29105·DEBRIS·🇷🇺 Russia

Gelanceerd Jun 10, 2004 vanaf Baikonur Cosmodrome

Loading…

Volgende Passages (komende 24 uur)

TLE

VerouderendSource: Space-Track

Epoch: Sep 12, 2026, 05:11 UTC

1 29105U 04021G   26255.21658960  .00003161  00000-0  19097-2 0  9990
2 29105  70.9159  94.3029 0171278 117.9475 243.9096 14.00253790666155

Volg SL-16 DEB in realtime met AllMySat

Download on the App Store